Wind_Speed
11 13 16 18 21 23 25 26 27 28 30 30 29 29 29 27 28 25 23 16 8 3 6 8 6 5 2 2 4 3 3 2 2 1 2 3 2 2 2 10 7 2 5 3 3 3 7 14 9 5 5 11 11 16
12 15 18 21 23 24 25 27 28 29 29 29 29 30 30 31 30 27 22 16 12 5 6 16 18 22 21 22 5 3 4 4 3 1 2 0 2 3 2 3 3 1 2 2 5 5 6 6 6 10 8 11 10 13
14 17 19 21 23 25 26 28 28 28 29 29 31 32 32 33 29 24 18 10 7 2 4 3 5 7 9 18 21 4 3 6 4 4 3 3 4 2 3 3 3 4 4 2 6 5 13 12 8 11 10 7 8 7
15 17 20 22 24 26 27 28 28 28 29 31 32 33 32 30 24 19 12 11 6 2 1 5 4 9 11 6 11 21 19 8 2 3 4 3 2 3 3 4 5 2 5 3 6 8 12 2 15 11 10 8 7 9
16 19 20 23 25 26 27 27 28 28 30 32 32 31 28 20 17 11 9 6 2 2 2 4 12 4 6 10 12 16 16 10 3 3 3 3 2 2 3 4 2 3 3 2 4 8 8 13 10 9 8 8 8 10
18 20 22 24 26 26 27 27 28 29 32 32 31 28 17 13 11 2 3 10 5 3 3 3 5 4 9 19 6 7 8 3 2 2 1 1 2 2 2 2 2 3 4 8 5 11 10 7 8 8 7 9 11 12
18 20 22 24 26 27 26 26 28 31 32 31 28 17 7 7 12 7 1 5 7 6 2 4 5 3 8 5 4 2 5 2 2 2 2 2 3 4 2 3 15 14 5 8 6 5 3 9 6 7 12 13 21 20
19 21 22 24 27 26 24 27 30 31 31 29 20 9 3 2 3 3 10 11 8 2 2 2 4 4 7 3 3 3 2 3 6 3 2 4 3 3 3 17 16 10 6 7 5 7 6 7 11 11 12 15 18 16
20 21 23 25 27 24 25 30 30 30 30 26 14 1 1 3 4 5 12 7 6 4 2 2 3 3 5 2 2 2 1 3 1 3 3 3 4 5 11 15 11 8 6 5 10 11 11 12 11 12 14 15 16 16
21 23 24 26 27 21 27 29 29 28 27 15 5 1 3 4 11 4 1 3 4 3 3 1 2 3 3 2 2 3 2 2 2 3 1 4 2 11 15 12 11 10 10 7 12 13 13 12 13 15 16 15 15 16
21 24 26 27 23 21 28 28 26 24 10 7 6 1 7 8 2 5 3 4 3 4 3 3 2 4 2 3 3 3 1 2 3 4 3 4 6 14 15 14 13 13 13 15 17 15 14 12 12 15 18 18 22 23
22 25 27 26 16 26 26 24 21 18 9 5 3 2 4 6 4 6 1 4 4 1 4 2 4 3 4 2 2 3 2 3 4 2 3 4 6 15 14 15 16 15 18 17 25 19 21 21 21 20 20 21 24 24
23 26 27 18 25 25 25 20 18 13 5 1 4 5 4 4 8 5 5 4 4 4 2 6 6 2 3 2 1 2 5 2 1 4 3 3 9 11 11 10 14 23 25 25 25 25 25 25 29 27 24 23 23 24
23 26 26 15 25 25 22 16 17 7 4 4 4 7 4 4 1 3 2 2 4 2 7 7 4 2 2 3 2 4 2 3 3 3 3 4 8 10 11 11 13 15 18 19 20 22 24 24 24 25 25 21 21 22
24 27 15 26 24 25 16 10 11 8 5 3 4 3 2 3 3 3 3 3 3 5 4 4 3 2 2 2 3 2 4 4 3 2 2 3 6 7 9 11 12 12 13 16 18 20 21 21 22 23 24 24 22 21
24 18 13 26 23 20 12 4 9 4 5 4 5 3 3 2 3 3 3 3 3 3 3 2 2 3 3 2 4 3 3 3 2 2 2 3 6 7 8 10 13 15 16 17 18 18 18 20 19 18 22 22 21 20
19 9 28 22 22 11 10 3 4 6 4 4 1 2 2 1 3 3 5 3 7 3 2 2 4 0 2 3 3 3 2 3 5 4 5 6 7 7 10 13 15 15 15 16 16 18 17 17 19 18 16 18 17 16
16 26 21 18 17 4 3 6 5 4 4 2 2 3 2 2 2 3 3 3 2 3 2 1 2 5 3 2 2 2 3 5 5 5 6 7 10 11 12 12 13 13 14 14 16 16 17 16 15 13 16 13 15 14
19 18 16 18 8 1 3 4 5 3 3 2 2 1 0 2 3 6 5 4 3 5 3 3 5 2 2 2 3 4 3 3 4 5 7 12 12 11 11 11 11 12 13 14 15 14 15 16 16 15 13 14 13 11
14 10 17 9 5 2 4 3 3 4 1 2 1 2 1 2 3 3 5 4 3 2 5 4 3 2 2 3 3 4 4 7 5 6 5 7 10 13 12 10 10 10 14 14 14 13 14 15 16 17 13 10 11 11
7 8 9 7 2 8 6 1 4 1 2 2 1 2 1 2 3 5 4 5 4 3 3 2 2 2 6 8 11 10 11 7 2 2 3 4 7 10 11 13 12 12 13 14 13 15 16 15 15 15 14 12 11 8
5 11 4 3 4 4 4 5 2 1 1 1 1 2 2 2 2 3 2 5 3 3 2 2 3 4 7 9 9 13 11 14 15 14 11 9 4 6 9 11 14 15 14 14 14 14 15 15 14 14 14 12 10 7
8 4 2 8 5 5 2 4 3 5 3 3 2 3 3 3 1 2 3 2 2 4 5 5 6 9 10 10 13 16 15 15 13 12 12 12 11 11 11 13 15 14 13 14 13 13 14 12 12 12 12 9 8 8
6 5 4 3 3 1 2 4 2 3 3 4 3 2 3 2 4 3 3 1 1 2 4 5 2 3 5 8 7 8 11 12 14 14 10 9 10 8 7 8 12 15 14 12 13 15 15 15 12 14 13 11 10 12
5 7 5 5 3 5 5 5 5 4 2 1 2 3 2 2 2 2 2 2 1 1 2 3 5 4 2 1 4 6 7 7 10 11 10 10 11 10 10 8 7 13 17 19 18 18 17 16 15 15 15 13 14 10
5 4 3 1 3 3 1 2 2 1 1 2 1 2 2 2 2 2 2 2 2 2 2 2 1 2 3 2 2 2 3 2 4 5 6 8 11 13 11 10 12 12 16 17 16 19 19 18 17 17 17 15 13 13
4 3 2 3 1 2 2 3 2 3 2 1 2 2 2 2 2 1 1 2 2 3 4 3 2 3 3 1 1 1 2 0 4 4 5 4 2 3 9 13 12 13 16 16 15 17 18 17 18 17 18 17 15 12
2 1 2 3 3 2 3 2 1 1 2 2 1 1 4 5 3 1 1 3 4 4 4 3 3 1 1 2 2 4 1 2 4 4 3 3 4 4 3 11 11 12 11 12 15 16 15 15 15 16 15 15 15 13
2 2 0 3 2 3 1 2 2 1 1 1 2 2 2 2 1 2 3 3 4 4 4 4 2 2 3 2 3 3 6 4 3 3 2 2 3 2 7 9 10 13 11 13 16 15 14 13 13 12 11 11 11 10
3 3 2 1 2 1 2 2 2 2 0 1 1 2 2 2 2 4 4 4 4 3 4 4 4 4 2 3 3 4 3 3 5 3 3 2 5 8 9 12 14 14 12 16 19 19 15 12 11 9 9 10 11 13
2 2 3 2 1 2 2 1 1 1 2 1 2 2 2 2 2 6 7 6 6 4 4 5 5 6 5 4 2 1 3 4 2 2 4 5 7 8 11 13 14 12 15 16 17 17 16 13 12 12 11 11 11 11
3 2 2 1 2 2 0 1 0 1 2 2 2 1 3 2 2 4 7 13 11 8 5 4 4 5 6 6 4 1 3 3 2 3 4 7 9 11 13 10 10 16 16 17 15 14 13 12 12 12 11 10 11 11
2 2 2 2 3 2 1 1 2 3 1 1 2 1 2 2 4 2 6 14 10 8 7 5 3 2 3 4 2 4 3 2 3 5 7 8 9 10 11 13 15 15 14 13 13 12 12 12 11 10 10 10 11 11
Wind_Direction
343 342 343 339 333 336 338 335 334 334 334 330 328 325 321 319 318 317 303 291 227 225 263 207 205 216 274 177 251 260 319 348 44 157 247 255 247 314 274 287 278 213 161 186 202 225 260 10 341 357 302 307 316 315
340 341 338 334 334 335 335 336 336 333 331 329 325 323 319 318 317 315 300 294 262 224 242 284 273 264 243 232 245 202 221 175 217 170 217 229 321 313 255 281 257 103 150 299 224 241 6 357 280 289 313 300 297 300
342 339 337 334 333 335 336 337 335 331 329 328 325 322 322 320 322 321 314 306 216 234 299 17 246 295 256 253 247 227 237 204 202 172 175 219 234 210 268 254 337 8 19 304 342 2 334 335 337 339 324 297 306 311
340 338 336 333 333 335 336 335 333 330 328 327 326 325 326 327 327 324 316 295 224 170 140 284 312 285 300 280 254 227 246 242 185 157 207 192 202 213 254 265 305 15 335 335 272 311 318 228 346 335 329 347 13 39
339 339 336 334 333 335 334 333 332 330 329 329 328 330 331 332 336 357 28 8 221 71 218 280 310 340 289 285 298 293 257 228 178 176 180 208 210 227 243 261 57 350 334 297 274 323 308 295 326 337 11 16 32 68
341 338 336 335 334 334 333 333 332 331 330 330 332 335 337 340 340 360 29 44 32 8 67 332 312 312 313 319 317 340 354 69 122 103 87 297 335 271 10 19 170 320 242 261 275 295 281 291 2 14 56 53 64 74
339 339 337 336 335 335 335 334 334 333 330 332 335 336 341 356 40 62 43 319 357 345 61 328 326 288 318 313 338 342 12 24 23 58 40 350 354 12 52 356 329 314 295 316 287 323 339 21 48 39 66 71 77 71
339 340 338 337 337 336 335 337 336 334 331 333 333 332 336 18 70 52 18 354 337 7 53 40 298 338 8 331 325 339 19 19 14 36 31 6 5 357 33 331 319 322 336 350 27 75 77 65 59 57 69 78 80 79
342 341 341 340 337 335 336 338 337 334 332 331 335 320 166 34 34 333 351 348 26 45 103 68 327 302 353 301 304 300 355 63 42 32 17 42 10 30 323 325 334 1 11 47 68 68 70 70 72 74 75 74 81 82
339 342 342 341 337 336 340 340 338 336 333 332 341 65 6 349 325 328 319 16 12 339 27 80 297 287 324 309 303 311 17 43 51 35 19 28 62 352 350 343 12 20 40 54 70 66 73 69 72 72 72 72 74 76
339 342 344 341 336 341 344 341 340 339 339 351 22 17 323 342 27 30 31 57 333 19 0 333 359 322 308 327 321 12 60 11 49 7 38 23 5 348 344 13 20 33 51 60 66 63 61 66 75 77 72 71 73 76
340 343 343 342 345 346 344 342 345 347 335 315 306 345 7 30 27 70 338 336 41 346 325 353 315 290 292 318 330 357 81 39 49 330 47 17 345 341 355 12 22 31 43 52 57 56 54 59 66 69 71 70 68 70
340 340 343 345 349 349 345 346 347 344 335 312 40 49 35 326 34 55 348 328 341 343 343 331 322 293 285 349 323 18 68 75 62 41 47 18 330 348 359 9 30 35 40 42 46 48 53 56 55 57 59 59 69 67
335 339 341 343 349 347 344 352 354 358 26 66 56 24 70 358 9 250 220 253 262 283 313 310 281 301 356 342 347 70 24 71 67 49 38 353 346 352 3 17 36 33 35 40 40 45 48 50 53 53 54 55 63 62
336 339 340 346 344 343 349 359 11 50 56 68 55 34 358 232 248 258 264 319 273 284 288 299 287 305 336 28 18 64 44 62 55 58 52 357 359 9 24 29 35 37 37 40 39 44 46 46 50 50 48 56 63 68
340 346 342 337 339 343 358 17 33 63 60 68 50 28 286 49 310 325 295 282 281 316 287 237 326 38 26 27 44 27 78 75 106 77 81 45 34 31 36 41 44 43 43 44 43 46 46 45 45 50 57 57 60 65
343 338 333 332 339 344 9 57 44 46 104 54 335 234 221 248 248 265 290 279 309 292 314 75 55 33 320 50 49 17 50 93 110 92 74 60 51 42 43 51 48 47 45 44 46 46 48 51 55 51 45 46 56 59
337 332 331 333 340 342 46 40 81 73 59 246 96 276 280 250 272 307 296 295 301 332 41 105 66 44 35 48 53 78 79 79 72 79 72 56 54 56 58 56 50 49 51 50 55 54 52 45 44 40 46 47 54 49
334 324 328 336 347 23 67 33 37 109 206 215 265 338 322 304 306 322 319 333 34 37 75 42 57 45 28 4 72 97 98 104 108 91 70 50 52 56 60 60 56 52 51 49 48 48 50 50 42 38 34 31 34 32
326 314 337 348 353 87 53 2 28 93 151 249 42 26 338 34 322 343 17 26 35 55 40 45 27 12 350 337 19 70 101 117 116 100 82 58 53 59 54 52 50 54 57 55 53 42 42 40 34 26 22 20 16 12
329 332 337 344 53 57 82 1 35 105 259 88 322 18 357 334 10 7 10 10 53 37 65 21 21 26 37 49 47 59 52 79 70 77 117 106 72 70 59 56 59 52 48 37 29 26 27 18 13 8 9 11 7 8
317 328 318 358 75 58 78 32 127 267 75 236 32 12 44 17 359 21 11 40 55 19 12 15 9 28 58 46 38 51 66 78 81 89 91 102 75 54 44 38 41 39 37 29 22 13 11 10 6 357 5 6 12 23
332 338 30 22 67 41 282 357 62 356 74 321 10 46 18 3 345 2 67 53 74 8 9 40 46 62 75 68 73 73 79 84 72 72 82 89 89 85 71 55 46 35 22 20 17 12 10 5 10 3 6 12 17 21
357 42 50 50 52 212 6 16 29 39 38 28 38 30 4 329 325 63 75 53 68 20 36 34 65 83 70 56 53 54 61 87 91 81 78 95 86 67 63 60 47 39 28 15 18 15 13 12 7 10 10 7 8 0
64 340 59 352 330 51 33 11 351 44 52 333 60 355 335 339 69 69 104 152 128 82 51 58 79 80 103 88 79 68 65 87 89 86 70 78 92 87 66 59 50 32 21 17 13 5 1 2 5 3 2 2 349 349
70 312 69 251 323 82 187 53 26 198 125 23 262 276 4 83 81 151 176 150 149 168 167 145 136 113 73 82 119 79 41 90 145 127 114 90 72 67 54 35 15 18 12 10 1 356 353 352 350 350 351 354 348 337
59 325 332 31 121 97 64 41 46 95 83 148 280 13 57 86 209 196 129 105 136 158 161 157 138 123 136 138 104 23 358 28 180 160 166 181 176 32 27 19 1 353 352 349 358 352 341 337 340 342 341 341 345 343
131 39 40 318 51 12 121 57 80 156 238 248 89 29 159 188 200 119 100 150 148 160 167 168 166 162 158 146 86 40 55 125 139 160 182 233 268 263 293 351 349 351 333 339 348 339 341 341 338 335 334 333 339 347
48 359 114 21 18 40 111 152 209 253 350 137 148 234 244 241 231 174 162 168 166 169 175 182 188 170 151 146 151 87 58 142 190 67 64 298 347 164 331 343 343 343 334 335 344 341 339 333 329 329 327 337 343 348
329 350 80 62 77 324 254 187 225 251 253 185 263 317 300 269 230 202 191 185 187 202 200 197 196 190 186 203 203 203 189 94 69 74 156 247 318 336 348 347 342 338 334 335 337 341 346 345 348 353 359 3 7 360
343 50 67 60 196 253 234 283 299 26 33 17 4 153 241 293 275 224 212 206 194 181 179 193 199 199 197 189 185 207 204 213 221 348 351 352 347 348 346 341 331 328 331 331 334 337 340 346 351 351 355 358 1 360
19 82 119 28 295 290 37 70 322 33 331 23 294 355 339 26 284 209 209 198 195 199 195 190 193 202 207 212 210 266 253 237 240 314 346 353 351 347 337 332 324 329 330 332 336 337 341 345 346 346 348 352 353 353
34 42 42 59 9 343 303 68 3 337 349 339 287 225 229 203 235 259 199 194 204 206 194 165 120 103 157 179 251 282 237 235 292 309 310 314 317 321 326 327 328 328 331 336 343 348 351 350 350 351 349 347 347 347
Height
866 864 861 858 856 852 847 843 837 832 827 823 820 815 810 805 801 799 792 791 790 789 778 776 776 778 779 780 777 778 777 777 782 781 769 769 769 756 763 741 740 730 747 751 743 745 728 703 680 679 701 689 681 669
864 861 858 856 853 849 843 838 833 828 823 819 814 809 804 799 794 790 784 782 782 780 773 769 768 768 767 765 770 770 769 771 767 772 770 777 767 768 765 749 727 722 732 735 725 712 707 710 708 703 697 692 684 675
861 859 856 853 850 845 839 834 830 825 820 814 809 803 797 792 786 782 776 775 775 772 769 768 763 760 760 760 761 766 760 757 757 756 769 765 768 754 747 744 740 732 734 728 727 712 711 709 708 702 698 694 685 678
858 855 853 850 846 841 836 830 826 820 815 809 803 796 790 785 780 776 772 771 771 771 777 769 759 757 756 756 756 754 748 750 750 753 756 756 757 749 745 737 737 746 742 742 739 724 718 707 706 707 701 694 688 683
855 852 849 846 841 836 831 826 821 816 810 804 798 791 785 781 778 773 770 769 769 773 781 768 758 755 754 752 750 747 741 740 744 747 748 749 747 748 741 738 744 749 747 749 739 732 735 722 715 710 704 700 695 692
852 849 846 843 837 832 827 822 817 811 805 799 793 786 783 780 775 773 773 773 773 773 779 781 764 757 753 749 747 745 739 738 741 743 745 745 745 743 740 741 749 750 749 745 739 735 731 725 720 715 711 707 704 702
848 845 842 839 834 828 822 817 812 805 800 794 788 783 781 779 776 776 780 779 776 775 778 784 772 758 754 750 747 745 744 744 742 744 748 749 748 745 750 756 756 747 746 740 735 731 729 725 727 721 716 714 712 712
846 843 838 835 830 824 819 813 807 801 795 789 784 781 780 779 778 778 778 778 777 777 778 793 779 767 758 757 754 751 748 749 752 755 757 759 758 760 765 766 757 748 743 739 734 732 732 732 730 727 726 724 722 724
845 840 834 831 827 821 816 810 803 797 792 785 780 779 780 779 779 781 780 779 778 781 788 787 790 781 763 761 758 753 750 757 760 765 766 765 773 778 778 768 758 749 747 744 741 739 738 737 738 737 735 734 733 735
844 837 831 827 823 817 812 806 800 794 789 782 779 779 786 783 781 781 780 782 782 784 785 791 785 780 774 765 759 756 754 760 765 773 771 777 785 785 779 772 762 755 751 748 745 747 746 747 747 746 745 744 745 745
840 835 829 823 819 814 807 803 798 792 788 785 784 787 784 782 781 786 799 801 805 806 796 792 792 788 775 770 767 763 771 770 776 781 779 789 793 791 785 777 770 765 760 757 754 754 756 757 756 755 753 757 759 760
836 832 827 820 816 810 806 800 795 791 790 789 788 786 785 791 800 806 839 819 815 815 803 803 798 792 781 774 772 772 775 778 784 787 795 803 805 800 792 785 780 775 770 767 765 767 769 767 768 766 766 768 770 773
832 830 824 818 814 808 805 799 794 790 788 788 788 797 805 821 827 841 844 833 826 814 810 807 801 791 780 777 776 777 782 791 788 801 806 816 813 807 801 795 790 786 781 778 778 779 778 778 776 774 776 779 780 781
829 825 819 816 811 807 803 798 793 790 789 801 813 824 838 850 845 834 831 828 821 820 812 807 799 789 784 784 782 783 790 791 804 810 819 823 820 814 808 803 797 797 795 793 793 791 789 788 789 788 789 790 789 790
826 820 816 814 809 805 800 797 794 792 796 817 821 844 846 836 837 829 827 826 818 814 810 805 799 792 791 793 792 791 799 812 810 817 823 827 824 821 817 813 810 808 807 806 804 802 801 800 799 798 799 799 800 800
823 817 816 813 809 803 799 797 796 797 807 821 831 845 835 839 838 832 827 822 815 812 808 805 805 808 803 802 804 812 809 815 821 825 828 828 828 826 824 822 820 818 816 814 813 812 811 809 809 810 811 811 809 808
820 818 815 811 808 802 800 798 799 810 821 832 839 833 831 833 832 828 821 816 814 812 804 812 820 818 810 813 819 819 819 822 826 830 831 832 831 830 829 827 827 825 824 822 821 819 819 820 819 818 818 818 816 816
819 817 812 809 805 802 801 802 808 820 833 839 833 833 828 826 826 823 820 816 814 808 809 822 819 826 827 823 822 826 828 830 832 834 835 836 836 835 834 833 833 832 831 830 829 828 827 826 825 825 824 823 822 822
816 814 812 809 804 803 805 812 814 831 835 832 827 826 826 825 824 822 819 816 815 813 817 828 838 839 830 831 827 828 830 832 835 839 840 840 840 839 839 839 839 837 836 835 834 833 832 831 831 829 828 827 826 825
811 811 811 807 805 804 815 821 820 825 833 831 828 828 825 827 825 823 820 818 818 822 832 839 840 840 838 836 833 833 835 836 837 839 843 845 845 843 843 843 842 842 841 840 839 838 837 836 834 833 832 831 829 828
810 811 808 807 806 807 819 829 831 832 834 828 828 827 828 828 827 827 827 823 830 838 843 844 843 843 842 840 838 838 839 838 840 840 844 847 848 848 847 847 846 844 843 842 841 840 838 837 836 835 833 832 830 828
812 810 809 808 809 814 824 830 833 833 834 834 829 830 837 838 831 831 832 837 844 849 847 847 847 846 845 844 845 844 844 844 844 845 847 848 850 850 850 849 847 846 845 844 844 843 841 839 838 836 833 831 830 828
811 811 810 810 816 823 836 832 835 841 837 841 840 833 838 841 837 835 844 848 851 853 851 851 850 850 850 850 849 849 848 848 849 850 851 851 852 853 853 853 851 849 848 848 847 845 843 841 839 837 835 834 832 831
813 815 823 830 834 837 839 845 843 847 852 854 856 846 844 843 840 841 852 853 854 854 853 853 853 854 854 854 854 855 854 854 854 854 854 854 854 855 855 855 854 853 853 851 848 846 844 841 840 838 836 834 832 830
824 835 836 844 845 841 850 852 855 848 857 870 859 854 850 853 845 845 845 852 854 855 855 855 855 855 857 858 857 857 856 856 856 856 857 857 856 857 857 857 856 855 853 850 848 846 844 842 840 838 836 833 831 829
843 847 847 849 849 844 853 850 858 860 865 858 860 862 863 849 844 845 847 851 853 855 855 856 856 857 857 857 857 857 857 857 857 858 859 858 858 858 859 857 856 854 853 851 849 846 843 841 839 837 834 832 830 828
849 852 846 843 844 847 849 851 853 858 864 856 863 862 860 852 848 849 852 852 853 854 855 856 856 856 857 857 858 857 857 856 857 858 858 858 859 858 858 857 855 854 852 851 849 846 844 841 838 835 833 831 829 826
846 846 849 852 852 854 857 862 864 861 861 856 857 860 856 853 849 851 851 852 853 854 855 855 856 856 857 857 857 857 856 856 856 857 857 858 857 857 857 856 855 853 852 850 848 846 843 840 837 834 832 829 827 825
849 846 847 854 858 860 863 862 860 857 855 857 860 858 858 853 851 851 852 852 853 853 854 855 856 856 856 857 857 858 857 856 857 857 858 858 857 857 856 855 854 852 850 849 847 844 841 839 835 833 830 828 826 824
853 849 851 860 857 856 860 858 859 857 856 856 856 855 853 851 850 851 851 851 852 852 853 853 854 855 856 856 857 857 857 857 857 857 857 857 856 855 854 853 852 850 849 846 843 840 837 835 832 830 828 826 824 823
853 853 856 860 861 861 858 857 857 857 857 857 856 857 855 852 849 849 850 850 851 852 852 852 853 854 855 856 856 856 856 857 857 857 856 855 854 854 853 852 850 849 846 844 841 838 835 832 830 828 826 824 823 822
856 861 861 859 861 859 858 859 861 860 860 858 858 858 855 854 853 848 846 848 850 851 852 852 852 853 854 854 855 855 855 855 855 855 854 854 853 852 851 849 848 846 843 841 838 835 833 830 828 826 825 823 822 820
863 863 863 864 862 860 858 859 859 859 858 859 858 859 858 855 851 845 844 845 848 849 851 852 852 852 853 853 854 853 853 853 853 852 853 852 853 851 850 848 845 843 841 838 836 833 831 829 827 825 823 822 821 819